| time (UTC) | temp F | wind direction | speed MPH | gust MPH | rain 1hr in | rain 24hr in | rain mn in | humidity % | barometer mb |
| 20260510220223 | 80 | 173 | 4.0 | 6.0 | 0.00 | 0.00 | 0.00 | 41 | 1015.3 |
| 20260510215542 | 80 | 226 | 4.0 | 6.0 | 0.00 | 0.00 | 0.00 | 42 | 1015.4 |
| 20260510214902 | 82 | 267 | 3.0 | 6.0 | 0.00 | 0.00 | 0.00 | 40 | 1015.6 |
| 20260510214222 | 82 | 259 | 3.0 | 5.0 | 0.00 | 0.00 | 0.00 | 41 | 1015.6 |
| 20260510212223 | 79 | 259 | 2.0 | 5.0 | 0.00 | 0.00 | 0.00 | 44 | 1015.6 |
| 20260510211542 | 80 | 279 | 3.0 | 7.0 | 0.00 | 0.00 | 0.00 | 43 | 1015.7 |
| 20260510211113 | 80 | 290 | 2.0 | 4.0 | 0.00 | 0.00 | 0.00 | 42 | 1015.6 |
| 20260510210222 | 81 | 344 | 1.0 | 6.0 | 0.00 | 0.00 | 0.00 | 40 | 1015.6 |
| 20260510205542 | 81 | 323 | 3.0 | 7.0 | 0.00 | 0.00 | 0.00 | 40 | 1015.6 |
| 20260510204902 | 80 | 323 | 3.0 | 8.0 | 0.00 | 0.00 | 0.00 | 42 | 1015.6 |
| 20260510204436 | 81 | 327 | 4.0 | 8.0 | 0.00 | 0.00 | 0.00 | 42 | 1015.6 |
| 20260510203542 | 80 | 334 | 4.0 | 8.0 | 0.00 | 0.00 | 0.00 | 42 | 1015.8 |
| 20260510202902 | 81 | 287 | 3.0 | 10.0 | 0.00 | 0.00 | 0.00 | 42 | 1015.9 |
| 20260510202222 | 80 | 280 | 6.0 | 12.0 | 0.00 | 0.00 | 0.00 | 42 | 1016.1 |
| 20260510201753 | 81 | 7 | 3.0 | 9.0 | 0.00 | 0.00 | 0.00 | 42 | 1016.1 |
| 20260510200902 | 80 | 264 | 5.0 | 10.0 | 0.00 | 0.00 | 0.00 | 43 | 1016.1 |
| 20260510200222 | 80 | 330 | 5.0 | 9.0 | 0.00 | 0.00 | 0.00 | 42 | 1016.3 |
| 20260510195542 | 80 | 316 | 4.0 | 7.0 | 0.00 | 0.00 | 0.00 | 43 | 1016.1 |
| 20260510194902 | 79 | 274 | 3.0 | 9.0 | 0.00 | 0.00 | 0.00 | 41 | 1016.2 |
| 20260510194223 | 80 | 244 | 4.0 | 10.0 | 0.00 | 0.00 | 0.00 | 43 | 1016.2 |
| 20260510193542 | 80 | 243 | 5.0 | 8.0 | 0.00 | 0.00 | 0.00 | 41 | 1016.3 |
| 20260510193113 | 80 | 291 | 3.0 | 7.0 | 0.00 | 0.00 | 0.00 | 43 | 1016.3 |
| 20260510192222 | 78 | 231 | 4.0 | 7.0 | 0.00 | 0.00 | 0.00 | 45 | 1016.4 |
| 20260510191543 | 79 | 173 | 1.0 | 6.0 | 0.00 | 0.00 | 0.00 | 43 | 1016.3 |
| 20260510190903 | 79 | 332 | 2.0 | 6.0 | 0.00 | 0.00 | 0.00 | 43 | 1016.4 |
| 20260510184903 | 79 | 173 | 3.0 | 8.0 | 0.00 | 0.00 | 0.00 | 43 | 1016.6 |
| 20260510184223 | 78 | 179 | 5.0 | 10.0 | 0.00 | 0.00 | 0.00 | 45 | 1016.5 |
| 20260510183542 | 78 | 165 | 5.0 | 10.0 | 0.00 | 0.00 | 0.00 | 45 | 1016.7 |
| 20260510182902 | 78 | 229 | 6.0 | 10.0 | 0.00 | 0.00 | 0.00 | 45 | 1016.8 |
| 20260510182222 | 80 | 215 | 2.0 | 8.0 | 0.00 | 0.00 | 0.00 | 45 | 1016.9 |
| 20260510181543 | 78 | 156 | 2.0 | 5.0 | 0.00 | 0.00 | 0.00 | 43 | 1016.9 |
| 20260510175542 | 78 | 221 | 4.0 | 10.0 | 0.00 | 0.00 | 0.00 | 45 | 1017.1 |
| 20260510174902 | 78 | 268 | 3.0 | 11.0 | 0.00 | 0.00 | 0.00 | 51 | 1017.2 |
| 20260510174222 | 76 | 307 | 8.0 | 13.0 | 0.00 | 0.00 | 0.00 | 52 | 1017.1 |
| 20260510173543 | 78 | 334 | 5.0 | 13.0 | 0.00 | 0.00 | 0.00 | 51 | 1017.2 |
| 20260510172903 | 78 | 300 | 2.0 | 10.0 | 0.00 | 0.00 | 0.00 | 47 | 1017.2 |
| 20260510172434 | 79 | 275 | 3.0 | 8.0 | 0.00 | 0.00 | 0.00 | 48 | 1017.4 |
| 20260510171543 | 77 | 309 | 4.0 | 8.0 | 0.00 | 0.00 | 0.00 | 47 | 1017.3 |
| 20260510171115 | 76 | 329 | 1.0 | 8.0 | 0.00 | 0.00 | 0.00 | 50 | 1017.2 |
| 20260510170223 | 76 | 303 | 5.0 | 10.0 | 0.00 | 0.00 | 0.00 | 54 | 1017.2 |
| 20260510165543 | 77 | 263 | 6.0 | 12.0 | 0.00 | 0.00 | 0.00 | 58 | 1017.5 |
| 20260510164902 | 76 | 256 | 5.0 | 12.0 | 0.00 | 0.00 | 0.00 | 66 | 1017.5 |
| 20260510164222 | 75 | 289 | 2.0 | 9.0 | 0.00 | 0.00 | 0.00 | 69 | 1017.6 |
| 20260510163542 | 75 | 289 | 5.0 | 9.0 | 0.00 | 0.00 | 0.00 | 66 | 1017.6 |
| 20260510162902 | 75 | 272 | 2.0 | 8.0 | 0.00 | 0.00 | 0.00 | 68 | 1017.7 |
| 20260510162222 | 75 | 284 | 4.0 | 8.0 | 0.00 | 0.00 | 0.00 | 68 | 1017.7 |
| 20260510161542 | 75 | 138 | 3.0 | 5.0 | 0.00 | 0.00 | 0.00 | 69 | 1017.6 |
| 20260510161111 | 74 | 215 | 3.0 | 9.0 | 0.00 | 0.00 | 0.00 | 70 | 1017.7 |
| 20260510160432 | 73 | 283 | 5.0 | 8.0 | 0.00 | 0.00 | 0.00 | 73 | 1017.6 |
| 20260510155542 | 73 | 146 | 2.0 | 5.0 | 0.00 | 0.00 | 0.00 | 73 | 1017.6 |
| 20260510154902 | 73 | 210 | 2.0 | 7.0 | 0.00 | 0.00 | 0.00 | 72 | 1017.5 |
| 20260510154222 | 73 | 234 | 4.0 | 7.0 | 0.00 | 0.00 | 0.00 | 74 | 1017.5 |
| 20260510153542 | 73 | 200 | 2.0 | 5.0 | 0.00 | 0.00 | 0.00 | 76 | 1017.6 |
| 20260510151542 | 70 | 77 | 3.0 | 5.0 | 0.00 | 0.00 | 0.00 | 80 | 1017.5 |
| 20260510150902 | 71 | 170 | 2.0 | 5.0 | 0.00 | 0.00 | 0.00 | 81 | 1017.6 |
| 20260510150222 | 70 | 53 | 2.0 | 6.0 | 0.00 | 0.00 | 0.00 | 83 | 1017.4 |
| 20260510145542 | 69 | 101 | 3.0 | 6.0 | 0.00 | 0.00 | 0.00 | 86 | 1017.5 |
| 20260510144903 | 68 | 71 | 4.0 | 5.0 | 0.00 | 0.00 | 0.00 | 86 | 1017.6 |
| 20260510144434 | 67 | 81 | 3.0 | 5.0 | 0.00 | 0.00 | 0.00 | 89 | 1017.7 |
| 20260510143542 | 67 | 133 | 2.0 | 5.0 | 0.00 | 0.00 | 0.00 | 92 | 1017.6 |
| 20260510142902 | 66 | 146 | 3.0 | 4.0 | 0.00 | 0.00 | 0.00 | 92 | 1017.7 |
| 20260510142436 | 66 | 320 | 2.0 | 5.0 | 0.00 | 0.00 | 0.00 | 92 | 1017.6 |
| 20260510141542 | 65 | 289 | 3.0 | 4.0 | 0.00 | 0.00 | 0.00 | 94 | 1017.6 |
| 20260510140902 | 65 | 280 | 2.0 | 5.0 | 0.00 | 0.00 | 0.00 | 96 | 1017.6 |
| 20260510140222 | 65 | 281 | 2.0 | 4.0 | 0.00 | 0.00 | 0.00 | 97 | 1017.7 |
| 20260510135542 | 65 | 276 | 3.0 | 4.0 | 0.00 | 0.00 | 0.00 | 96 | 1017.6 |
| 20260510134902 | 65 | 265 | 1.0 | 4.0 | 0.00 | 0.00 | 0.00 | 95 | 1017.5 |
| 20260510134435 | 64 | 218 | 2.0 | 5.0 | 0.00 | 0.00 | 0.00 | 96 | 1017.5 |
| 20260510133542 | 64 | 175 | 2.0 | 4.0 | 0.00 | 0.00 | 0.00 | 97 | 1017.4 |
| 20260510132902 | 64 | 297 | 1.0 | 4.0 | 0.00 | 0.00 | 0.00 | 100 | 1017.5 |
| 20260510132437 | 63 | 253 | 2.0 | 5.0 | 0.00 | 0.00 | 0.00 | 100 | 1017.4 |
| 20260510131542 | 62 | 187 | 3.0 | 5.0 | 0.00 | 0.00 | 0.00 | 100 | 1017.3 |
| 20260510131113 | 62 | 222 | 3.0 | 4.0 | 0.00 | 0.00 | 0.00 | 100 | 1017.4 |
| 20260510130222 | 62 | 209 | 2.0 | 4.0 | 0.00 | 0.00 | 0.00 | 100 | 1017.2 |
| 20260510125543 | 62 | 222 | 2.0 | 3.0 | 0.00 | 0.00 | 0.00 | 100 | 1017.2 |
| 20260510124902 | 62 | 151 | 2.0 | 6.0 | 0.00 | 0.00 | 0.00 | 100 | 1017.0 |
| 20260510124222 | 62 | 167 | 2.0 | 6.0 | 0.00 | 0.00 | 0.00 | 100 | 1016.9 |
| 20260510123542 | 62 | 165 | 2.0 | 4.0 | 0.00 | 0.00 | 0.00 | 100 | 1016.8 |
| 20260510123112 | 62 | 186 | 2.0 | 4.0 | 0.00 | 0.00 | 0.00 | 100 | 1016.7 |
| 20260510122437 | 62 | 119 | 3.0 | 4.0 | 0.00 | 0.00 | 0.00 | 100 | 1016.7 |
| 20260510120902 | 61 | 84 | 2.0 | 2.0 | 0.00 | 0.00 | 0.00 | 100 | 1016.7 |
| 20260510120223 | 61 | 104 | 1.0 | 2.0 | 0.00 | 0.00 | 0.00 | 100 | 1016.6 |
| 20260510115542 | 61 | 64 | 1.0 | 2.0 | 0.00 | 0.00 | 0.00 | 100 | 1016.5 |
| 20260510114903 | 60 | 55 | 1.0 | 1.0 | 0.00 | 0.00 | 0.00 | 100 | 1016.3 |
| 20260510113542 | 60 | 44 | 1.0 | 2.0 | 0.00 | 0.00 | 0.00 | 100 | 1016.1 |
| 20260510112902 | 59 | 53 | 1.0 | 2.0 | 0.00 | 0.00 | 0.00 | 100 | 1016.0 |
| 20260510110902 | 59 | 1 | 0.0 | 2.0 | 0.00 | 0.00 | 0.00 | 100 | 1015.7 |
| 20260510110223 | 59 | 340 | 1.0 | 2.0 | 0.00 | 0.00 | 0.00 | 100 | 1015.6 |
| 20260510105542 | 59 | 96 | 1.0 | 2.0 | 0.00 | 0.00 | 0.00 | 100 | 1015.5 |
| 20260510104902 | 58 | 79 | 1.0 | 2.0 | 0.00 | 0.00 | 0.00 | 100 | 1015.5 |
| 20260510104222 | 58 | 3 | 0.0 | 1.0 | 0.00 | 0.00 | 0.00 | 100 | 1015.3 |
| 20260510103752 | 57 | 0 | 0.0 | 2.0 | 0.00 | 0.00 | 0.00 | 100 | 1015.1 |
| 20260510102902 | 58 | 45 | 1.0 | 2.0 | 0.00 | 0.00 | 0.00 | 100 | 1015.1 |
| 20260510102223 | 57 | 330 | 1.0 | 1.0 | 0.00 | 0.00 | 0.00 | 100 | 1015.0 |
| 20260510100223 | 57 | 6 | 1.0 | 2.0 | 0.00 | 0.00 | 0.00 | 99 | 1015.0 |
| 20260510095756 | 56 | 33 | 1.0 | 2.0 | 0.00 | 0.00 | 0.00 | 99 | 1014.9 |
| 20260510094902 | 56 | 114 | 1.0 | 2.0 | 0.00 | 0.00 | 0.00 | 100 | 1015.0 |
| 20260510094222 | 56 | 106 | 1.0 | 3.0 | 0.00 | 0.00 | 0.00 | 100 | 1014.9 |
| 20260510093542 | 56 | 129 | 2.0 | 3.0 | 0.00 | 0.00 | 0.00 | 100 | 1014.8 |
| 20260510092902 | 57 | 119 | 1.0 | 3.0 | 0.00 | 0.00 | 0.00 | 100 | 1014.9 |
| 20260510092223 | 56 | 141 | 2.0 | 3.0 | 0.00 | 0.00 | 0.00 | 100 | 1014.9 |
| 20260510091755 | 56 | 100 | 1.0 | 2.0 | 0.00 | 0.00 | 0.00 | 100 | 1014.9 |
| 20260510090902 | 56 | 314 | 1.0 | 2.0 | 0.00 | 0.00 | 0.00 | 100 | 1015.0 |
| 20260510090222 | 56 | 13 | 1.0 | 2.0 | 0.00 | 0.00 | 0.00 | 100 | 1014.9 |
| 20260510085542 | 57 | 222 | 1.0 | 2.0 | 0.00 | 0.00 | 0.00 | 100 | 1014.8 |
| 20260510084903 | 57 | 350 | 0.0 | 2.0 | 0.00 | 0.00 | 0.00 | 100 | 1014.6 |
| 20260510084222 | 57 | 60 | 1.0 | 2.0 | 0.00 | 0.00 | 0.00 | 100 | 1014.5 |
| 20260510083542 | 57 | 156 | 1.0 | 3.0 | 0.00 | 0.00 | 0.00 | 100 | 1014.4 |
| 20260510083114 | 57 | 159 | 2.0 | 3.0 | 0.00 | 0.00 | 0.00 | 100 | 1014.4 |
| 20260510082222 | 57 | 85 | 1.0 | 2.0 | 0.00 | 0.00 | 0.00 | 100 | 1014.1 |
| 20260510081755 | 57 | 142 | 1.0 | 2.0 | 0.00 | 0.00 | 0.00 | 100 | 1014.0 |
| 20260510081116 | 57 | 247 | 1.0 | 2.0 | 0.00 | 0.00 | 0.00 | 100 | 1013.9 |
| 20260510080222 | 58 | 0 | 0.0 | 1.0 | 0.00 | 0.00 | 0.00 | 100 | 1014.0 |
| 20260510075542 | 58 | 70 | 1.0 | 2.0 | 0.00 | 0.00 | 0.00 | 100 | 1013.9 |
| 20260510074902 | 58 | 180 | 1.0 | 2.0 | 0.00 | 0.00 | 0.00 | 100 | 1013.8 |
| 20260510074222 | 58 | 359 | 0.0 | 2.0 | 0.00 | 0.00 | 0.00 | 100 | 1013.8 |
| 20260510073542 | 57 | 328 | 1.0 | 2.0 | 0.00 | 0.00 | 0.00 | 100 | 1013.7 |
| 20260510072903 | 58 | 332 | 1.0 | 2.0 | 0.00 | 0.00 | 0.00 | 100 | 1013.6 |
| 20260510072222 | 58 | 75 | 1.0 | 1.0 | 0.00 | 0.00 | 0.00 | 100 | 1013.7 |
| 20260510071542 | 58 | 7 | 0.0 | 1.0 | 0.00 | 0.00 | 0.00 | 100 | 1013.8 |
| 20260510070903 | 58 | 1 | 0.0 | 1.0 | 0.00 | 0.00 | 0.00 | 100 | 1013.8 |
| 20260510070432 | 58 | 357 | 1.0 | 1.0 | 0.00 | 0.00 | 0.00 | 100 | 1013.6 |
| 20260510065753 | 58 | 0 | 0.0 | 1.0 | 0.00 | 0.00 | 0.00 | 100 | 1013.6 |
| 20260510065114 | 58 | 0 | 0.0 | 1.0 | 0.00 | 0.00 | 0.00 | 100 | 1013.7 |
| 20260510064223 | 59 | 347 | 1.0 | 1.0 | 0.00 | 0.00 | 0.00 | 100 | 1013.7 |
| 20260510063542 | 58 | 360 | 1.0 | 1.0 | 0.00 | 0.00 | 0.00 | 100 | 1013.7 |
| 20260510063116 | 59 | 0 | 0.0 | 1.0 | 0.00 | 0.00 | 0.00 | 99 | 1013.7 |
| 20260510062436 | 59 | 9 | 0.0 | 2.0 | 0.00 | 0.00 | 0.00 | 99 | 1013.8 |
| 20260510061542 | 59 | 69 | 1.0 | 2.0 | 0.00 | 0.00 | 0.00 | 99 | 1013.9 |
| 20260510060902 | 59 | 360 | 0.0 | 1.0 | 0.00 | 0.00 | 0.00 | 99 | 1013.8 |
| 20260510060222 | 59 | 45 | 1.0 | 1.0 | 0.00 | 0.00 | 0.00 | 99 | 1013.9 |
| 20260510055542 | 59 | 8 | 1.0 | 1.0 | 0.00 | 0.00 | 0.00 | 99 | 1013.9 |
| 20260510054902 | 59 | 359 | 0.0 | 1.0 | 0.00 | 0.00 | 0.00 | 99 | 1013.9 |
| 20260510054222 | 59 | 83 | 1.0 | 1.0 | 0.00 | 0.00 | 0.00 | 100 | 1013.9 |
| 20260510053542 | 59 | 79 | 1.0 | 1.0 | 0.00 | 0.00 | 0.00 | 100 | 1014.0 |
| 20260510052902 | 60 | 0 | 0.0 | 2.0 | 0.00 | 0.00 | 0.00 | 100 | 1014.0 |
| 20260510052222 | 60 | 287 | 1.0 | 2.0 | 0.00 | 0.00 | 0.00 | 100 | 1014.0 |
| 20260510051752 | 60 | 265 | 1.0 | 1.0 | 0.00 | 0.00 | 0.00 | 100 | 1014.0 |
| 20260510050903 | 60 | 274 | 1.0 | 1.0 | 0.00 | 0.00 | 0.00 | 98 | 1014.0 |
| 20260510050433 | 60 | 354 | 0.0 | 1.0 | 0.00 | 0.00 | 0.00 | 98 | 1014.0 |
| 20260510045542 | 60 | 93 | 1.0 | 1.0 | 0.00 | 0.00 | 0.00 | 100 | 1014.0 |
| 20260510044902 | 61 | 0 | 0.0 | 1.0 | 0.00 | 0.00 | 0.00 | 100 | 1014.0 |
| 20260510044436 | 61 | 0 | 0.0 | 1.0 | 0.00 | 0.00 | 0.00 | 100 | 1014.0 |
| 20260510043542 | 61 | 350 | 0.0 | 1.0 | 0.00 | 0.00 | 0.00 | 99 | 1014.1 |
| 20260510042902 | 61 | 335 | 1.0 | 1.0 | 0.00 | 0.00 | 0.00 | 99 | 1014.1 |
| 20260510042222 | 61 | 24 | 1.0 | 1.0 | 0.00 | 0.00 | 0.00 | 98 | 1014.2 |
| 20260510041543 | 61 | 0 | 0.0 | 1.0 | 0.00 | 0.00 | 0.00 | 99 | 1014.1 |
| 20260510040902 | 62 | 3 | 1.0 | 2.0 | 0.00 | 0.00 | 0.00 | 98 | 1014.2 |
| 20260510040222 | 62 | 176 | 1.0 | 1.0 | 0.00 | 0.00 | 0.00 | 98 | 1014.1 |
| 20260510035542 | 62 | 3 | 0.0 | 2.0 | 0.00 | 0.00 | 0.00 | 97 | 1014.1 |
| 20260510034902 | 62 | 108 | 1.0 | 3.0 | 0.00 | 0.00 | 0.00 | 98 | 1014.1 |
| 20260510034222 | 62 | 85 | 2.0 | 3.0 | 0.00 | 0.00 | 0.00 | 97 | 1014.1 |
| 20260510033542 | 62 | 54 | 1.0 | 2.0 | 0.00 | 0.00 | 0.00 | 97 | 1014.1 |
| 20260510032903 | 62 | 101 | 1.0 | 2.0 | 0.00 | 0.00 | 0.00 | 96 | 1014.1 |
| 20260510032223 | 63 | 93 | 1.0 | 2.0 | 0.00 | 0.00 | 0.00 | 95 | 1014.1 |
| 20260510031543 | 63 | 115 | 1.0 | 2.0 | 0.00 | 0.00 | 0.00 | 94 | 1014.1 |
| 20260510030223 | 63 | 355 | 0.0 | 2.0 | 0.00 | 0.00 | 0.00 | 96 | 1013.9 |
| 20260510025543 | 65 | 231 | 2.0 | 2.0 | 0.00 | 0.00 | 0.00 | 92 | 1013.9 |
| 20260510024902 | 65 | 238 | 2.0 | 4.0 | 0.00 | 0.00 | 0.00 | 93 | 1013.8 |
| 20260510024222 | 64 | 271 | 2.0 | 6.0 | 0.00 | 0.00 | 0.00 | 93 | 1013.6 |
| 20260510023543 | 66 | 208 | 3.0 | 6.0 | 0.00 | 0.00 | 0.00 | 89 | 1013.6 |
| 20260510022903 | 66 | 219 | 2.0 | 6.0 | 0.00 | 0.00 | 0.00 | 89 | 1013.6 |
| 20260510022223 | 66 | 167 | 2.0 | 6.0 | 0.00 | 0.00 | 0.00 | 88 | 1013.5 |
| 20260510021543 | 66 | 184 | 2.0 | 5.0 | 0.00 | 0.00 | 0.00 | 89 | 1013.4 |
| 20260510020902 | 65 | 229 | 2.0 | 4.0 | 0.00 | 0.00 | 0.00 | 91 | 1013.2 |
| 20260510020435 | 64 | 245 | 3.0 | 3.0 | 0.00 | 0.00 | 0.00 | 95 | 1013.1 |
| 20260510015756 | 64 | 287 | 1.0 | 2.0 | 0.00 | 0.00 | 0.00 | 93 | 1012.9 |
| 20260510014902 | 65 | 283 | 1.0 | 3.0 | 0.00 | 0.00 | 0.00 | 91 | 1012.7 |
| 20260510014432 | 67 | 171 | 2.0 | 4.0 | 0.00 | 0.00 | 0.00 | 85 | 1012.6 |
| 20260510013542 | 68 | 154 | 2.0 | 4.0 | 0.00 | 0.00 | 0.00 | 84 | 1012.5 |
| 20260510012902 | 68 | 142 | 2.0 | 5.0 | 0.00 | 0.00 | 0.00 | 84 | 1012.4 |
| 20260510012223 | 68 | 149 | 2.0 | 5.0 | 0.00 | 0.00 | 0.00 | 82 | 1012.3 |
| 20260510011542 | 69 | 179 | 3.0 | 6.0 | 0.00 | 0.00 | 0.00 | 81 | 1012.3 |
| 20260510011116 | 69 | 165 | 3.0 | 6.0 | 0.00 | 0.00 | 0.00 | 81 | 1012.4 |
| 20260510010222 | 69 | 148 | 2.0 | 5.0 | 0.00 | 0.00 | 0.00 | 82 | 1012.1 |
| 20260510005752 | 70 | 158 | 2.0 | 4.0 | 0.00 | 0.00 | 0.00 | 79 | 1012.1 |
| 20260510004902 | 69 | 151 | 1.0 | 5.0 | 0.00 | 0.00 | 0.00 | 81 | 1012.1 |
| 20260510004222 | 70 | 158 | 3.0 | 5.0 | 0.00 | 0.00 | 0.00 | 77 | 1011.9 |
| 20260510003542 | 70 | 178 | 3.0 | 5.0 | 0.00 | 0.00 | 0.00 | 76 | 1011.9 |
| 20260510002902 | 70 | 153 | 3.0 | 5.0 | 0.00 | 0.00 | 0.00 | 76 | 1011.7 |
| 20260510002223 | 70 | 147 | 2.0 | 5.0 | 0.00 | 0.00 | 0.00 | 79 | 1011.5 |
| 20260510001542 | 71 | 153 | 2.0 | 3.0 | 0.00 | 0.00 | 0.00 | 77 | 1011.5 |
| 20260510000902 | 71 | 210 | 1.0 | 3.0 | 0.00 | 0.00 | 0.00 | 79 | 1011.5 |
| 20260510000433 | 71 | 218 | 1.0 | 3.0 | 0.00 | 0.00 | 0.00 | 77 | 1011.4 |
| 20260509235543 | 71 | 203 | 2.0 | 4.0 | 0.00 | 0.00 | 0.00 | 75 | 1011.4 |
| 20260509234902 | 71 | 180 | 2.0 | 5.0 | 0.00 | 0.00 | 0.00 | 76 | 1011.3 |
| 20260509234223 | 71 | 211 | 2.0 | 5.0 | 0.00 | 0.00 | 0.00 | 75 | 1011.3 |
| 20260509233543 | 71 | 191 | 3.0 | 5.0 | 0.00 | 0.00 | 0.00 | 75 | 1011.2 |
| 20260509232902 | 72 | 219 | 2.0 | 4.0 | 0.00 | 0.00 | 0.00 | 76 | 1011.0 |
| 20260509232436 | 72 | 223 | 2.0 | 4.0 | 0.00 | 0.00 | 0.00 | 72 | 1011.2 |
| 20260509231756 | 73 | 200 | 2.0 | 4.0 | 0.00 | 0.00 | 0.00 | 71 | 1011.3 |
| 20260509231112 | 73 | 193 | 1.0 | 3.0 | 0.00 | 0.00 | 0.00 | 70 | 1011.4 |
| 20260509230223 | 73 | 225 | 2.0 | 4.0 | 0.00 | 0.00 | 0.00 | 69 | 1011.1 |
| 20260509225542 | 74 | 217 | 2.0 | 4.0 | 0.00 | 0.00 | 0.00 | 65 | 1011.1 |
| 20260509224902 | 74 | 200 | 2.0 | 4.0 | 0.00 | 0.00 | 0.00 | 67 | 1011.1 |
| 20260509224222 | 74 | 203 | 2.0 | 4.0 | 0.00 | 0.00 | 0.00 | 62 | 1011.1 |
| 20260509223542 | 75 | 208 | 3.0 | 4.0 | 0.00 | 0.00 | 0.00 | 60 | 1011.0 |
| 20260509222902 | 75 | 234 | 1.0 | 3.0 | 0.00 | 0.00 | 0.00 | 64 | 1011.0 |
| 20260509222436 | 75 | 268 | 2.0 | 5.0 | 0.00 | 0.00 | 0.00 | 60 | 1010.8 |